SWU1997 LIPB-EDDC

Flight info

Callsign SWU1997
Flight time 1h 16m
Altitude 24000
Route ALESE DCT NAXAV DCT BRENO M726 MAH L132 AGNAV/N0318F230 DCT SUPIL DCT KILNU L132 ABKIS Q240 DRN
Aircraft DH8D/M-SDE2E3FGRY/H

Departure

Time 2026-05-06 09:55
Airport Bolzano Airport (LIPB)

Arrival

Time 2026-05-06 11:11
Airport Dresden Airport (EDDC)
Time Latitude Longitude Altitude Speed Heading
2026-05-06 09:26 46.46250 11.32878 796 ft 0 kts 100°
2026-05-06 09:50 46.46246 11.32885 796 ft 1 kts 151°
2026-05-06 09:51 46.46243 11.32871 796 ft 3 kts 312°
2026-05-06 09:51 46.46261 11.32834 795 ft 5 kts 335°
2026-05-06 09:51 46.46301 11.32836 796 ft 6 kts
2026-05-06 09:51 46.46349 11.32846 796 ft 8 kts
2026-05-06 09:52 46.46410 11.32864 797 ft 9 kts 10°
2026-05-06 09:52 46.46480 11.32882 797 ft 10 kts 11°
2026-05-06 09:52 46.46551 11.32899 798 ft 10 kts
2026-05-06 09:52 46.46625 11.32918 799 ft 11 kts 10°
2026-05-06 09:53 46.46671 11.32922 799 ft 5 kts 322°
2026-05-06 09:53 46.46685 11.32859 799 ft 7 kts 273°
2026-05-06 09:53 46.46667 11.32807 799 ft 0 kts 188°
2026-05-06 09:54 46.46658 11.32805 799 ft 7 kts 188°
2026-05-06 09:54 46.46325 11.32723 796 ft 95 kts 191°
2026-05-06 09:55 46.45458 11.32487 897 ft 144 kts 192°
2026-05-06 09:55 46.44511 11.32163 1568 ft 142 kts 195°
2026-05-06 09:55 46.43553 11.31743 2181 ft 151 kts 196°
2026-05-06 09:55 46.42534 11.31318 2869 ft 150 kts 194°
2026-05-06 09:56 46.41573 11.30897 3524 ft 149 kts 195°
2026-05-06 09:56 46.40583 11.30530 4150 ft 149 kts 192°
2026-05-06 09:56 46.39595 11.30157 4780 ft 150 kts 198°
2026-05-06 09:56 46.38720 11.29358 5372 ft 153 kts 217°
2026-05-06 09:57 46.37912 11.28374 5999 ft 153 kts 218°
2026-05-06 09:57 46.37040 11.27557 6591 ft 152 kts 201°
2026-05-06 09:57 46.36066 11.27074 7219 ft 149 kts 195°
2026-05-06 09:57 46.35033 11.26601 7538 ft 172 kts 196°
2026-05-06 09:58 46.33797 11.26051 7863 ft 188 kts 197°
2026-05-06 09:58 46.32584 11.25503 8542 ft 185 kts 196°
2026-05-06 09:58 46.31758 11.25139 8965 ft 186 kts 196°
2026-05-06 09:58 46.30096 11.24397 9750 ft 188 kts 197°
2026-05-06 09:59 46.28871 11.23853 10348 ft 189 kts 197°
2026-05-06 09:59 46.27594 11.23279 10858 ft 193 kts 197°
2026-05-06 09:59 46.26335 11.22718 11418 ft 189 kts 198°
2026-05-06 09:59 46.25064 11.22142 11826 ft 195 kts 198°
2026-05-06 10:00 46.23789 11.21573 12426 ft 192 kts 198°
2026-05-06 10:00 46.22510 11.20998 12862 ft 196 kts 199°
2026-05-06 10:00 46.21236 11.20431 13407 ft 194 kts 199°
2026-05-06 10:00 46.19850 11.19802 13260 ft 226 kts 199°
2026-05-06 10:01 46.18299 11.19105 13402 ft 240 kts 199°
2026-05-06 10:01 46.16700 11.18395 13793 ft 243 kts 199°
2026-05-06 10:01 46.15081 11.17670 14305 ft 240 kts 199°
2026-05-06 10:01 46.13469 11.16948 14642 ft 244 kts 199°
2026-05-06 10:02 46.11876 11.16232 15165 ft 241 kts 198°
2026-05-06 10:02 46.10268 11.15517 15443 ft 247 kts 198°
2026-05-06 10:02 46.09163 11.15062 15774 ft 244 kts 197°
2026-05-06 10:02 46.07002 11.14213 16309 ft 244 kts 197°
2026-05-06 10:03 46.05363 11.13570 16630 ft 246 kts 197°
2026-05-06 10:03 46.03713 11.12923 17013 ft 246 kts 196°
2026-05-06 10:03 46.02032 11.12261 17313 ft 248 kts 196°
2026-05-06 10:03 46.00334 11.11888 17599 ft 254 kts 178°
2026-05-06 10:04 45.98716 11.12917 17922 ft 267 kts 146°
2026-05-06 10:04 45.97702 11.15217 18133 ft 290 kts 115°
2026-05-06 10:04 45.97350 11.18109 18414 ft 298 kts 104°
2026-05-06 10:04 45.97150 11.21095 18657 ft 303 kts 102°
2026-05-06 10:05 45.97023 11.24096 18958 ft 305 kts 100°
2026-05-06 10:05 45.96970 11.27188 19266 ft 307 kts 97°
2026-05-06 10:05 45.97003 11.30274 19448 ft 315 kts 95°
2026-05-06 10:05 45.97131 11.33360 19784 ft 316 kts 92°
2026-05-06 10:06 45.97360 11.36524 20014 ft 320 kts 89°
2026-05-06 10:06 45.97697 11.39704 20235 ft 324 kts 86°
2026-05-06 10:06 45.98150 11.42904 20447 ft 327 kts 82°
2026-05-06 10:06 45.98714 11.46071 20578 ft 333 kts 79°
2026-05-06 10:07 45.99554 11.49208 20800 ft 339 kts 63°
2026-05-06 10:07 46.01189 11.51636 20907 ft 345 kts 32°
2026-05-06 10:07 46.03445 11.52761 21035 ft 340 kts
2026-05-06 10:07 46.05701 11.52317 21187 ft 324 kts 332°
2026-05-06 10:08 46.07715 11.50993 21340 ft 323 kts 327°
2026-05-06 10:08 46.09781 11.49654 21516 ft 326 kts 329°
2026-05-06 10:08 46.11873 11.48407 21783 ft 324 kts 330°
2026-05-06 10:08 46.13996 11.47218 21878 ft 328 kts 332°
2026-05-06 10:09 46.16110 11.46100 22109 ft 328 kts 332°
2026-05-06 10:09 46.18246 11.45012 22473 ft 319 kts 333°
2026-05-06 10:09 46.20308 11.43998 22884 ft 313 kts 332°
2026-05-06 10:09 46.22362 11.43000 23241 ft 306 kts 332°
2026-05-06 10:10 46.24383 11.42029 23433 ft 306 kts 333°
2026-05-06 10:10 46.26398 11.41077 23705 ft 303 kts 333°
2026-05-06 10:10 46.28375 11.40152 23868 ft 304 kts 333°
2026-05-06 10:10 46.30419 11.39237 23915 ft 310 kts 334°
2026-05-06 10:11 46.32520 11.38315 23929 ft 317 kts 334°
2026-05-06 10:11 46.34633 11.37391 23926 ft 324 kts 334°
2026-05-06 10:11 46.36827 11.36437 23932 ft 330 kts 336°
2026-05-06 10:11 46.39037 11.35476 23901 ft 336 kts 335°
2026-05-06 10:12 46.41286 11.34497 23906 ft 341 kts 335°
2026-05-06 10:12 46.43590 11.33497 23910 ft 345 kts 335°
2026-05-06 10:12 46.45903 11.32555 23878 ft 353 kts 340°
2026-05-06 10:12 46.48401 11.32400 23916 ft 365 kts 357°
2026-05-06 10:13 46.50116 11.32578 23887 ft 369 kts 359°
2026-05-06 10:13 46.53535 11.32964 23903 ft 372 kts 359°
2026-05-06 10:13 46.56128 11.33257 23900 ft 375 kts 359°
2026-05-06 10:13 46.58728 11.33546 23908 ft 377 kts 359°
2026-05-06 10:14 46.61354 11.33834 23901 ft 379 kts 359°
2026-05-06 10:14 46.63960 11.34117 23914 ft 380 kts 360°
2026-05-06 10:14 46.66603 11.34405 23930 ft 380 kts 359°
2026-05-06 10:14 46.69258 11.34686 23928 ft 381 kts 359°
2026-05-06 10:15 46.71875 11.34966 23919 ft 382 kts 359°
2026-05-06 10:15 46.74543 11.35252 23909 ft 383 kts 359°
2026-05-06 10:15 46.77183 11.35533 23938 ft 382 kts 359°
2026-05-06 10:15 46.79831 11.35815 23901 ft 384 kts 359°
2026-05-06 10:16 46.81614 11.36003 23909 ft 384 kts 359°
2026-05-06 10:16 46.85141 11.36381 23910 ft 382 kts 359°
2026-05-06 10:16 46.87803 11.36664 23914 ft 381 kts 359°
2026-05-06 10:16 46.90421 11.36940 23909 ft 381 kts 359°
2026-05-06 10:17 46.93071 11.37223 23900 ft 380 kts 359°
2026-05-06 10:17 46.95699 11.37501 23892 ft 378 kts 359°
2026-05-06 10:17 46.98316 11.37782 23916 ft 376 kts 359°
2026-05-06 10:17 47.00917 11.38047 23920 ft 375 kts 358°
2026-05-06 10:18 47.03516 11.38305 23922 ft 374 kts 359°
2026-05-06 10:18 47.06095 11.38565 23922 ft 373 kts 359°
2026-05-06 10:18 47.08678 11.38823 23925 ft 372 kts 359°
2026-05-06 10:18 47.11292 11.39085 23907 ft 372 kts 359°
2026-05-06 10:19 47.13888 11.39346 23892 ft 372 kts 359°
2026-05-06 10:19 47.16442 11.39602 23886 ft 372 kts 359°
2026-05-06 10:19 47.18185 11.39778 23889 ft 373 kts 359°
2026-05-06 10:19 47.21642 11.40127 23865 ft 374 kts 359°
2026-05-06 10:20 47.24215 11.40361 23874 ft 372 kts 357°
2026-05-06 10:20 47.26810 11.40394 23875 ft 372 kts 354°
2026-05-06 10:20 47.29405 11.40372 23869 ft 374 kts 355°
2026-05-06 10:20 47.32008 11.40357 23860 ft 375 kts 355°
2026-05-06 10:21 47.34603 11.40347 23860 ft 375 kts 355°
2026-05-06 10:21 47.37192 11.40341 23868 ft 376 kts 355°
2026-05-06 10:21 47.39803 11.40335 23864 ft 376 kts 355°
2026-05-06 10:21 47.42435 11.40304 23874 ft 377 kts 354°
2026-05-06 10:22 47.45060 11.40267 23885 ft 378 kts 355°
2026-05-06 10:22 47.47676 11.40231 23870 ft 379 kts 355°
2026-05-06 10:22 47.50302 11.40197 23859 ft 379 kts 355°
2026-05-06 10:22 47.52911 11.40165 23864 ft 379 kts 355°
2026-05-06 10:23 47.55553 11.40133 23850 ft 379 kts 355°
2026-05-06 10:23 47.58187 11.40103 23846 ft 378 kts 355°
2026-05-06 10:23 47.60828 11.40072 23852 ft 378 kts 355°
2026-05-06 10:23 47.63434 11.40010 23854 ft 377 kts 353°
2026-05-06 10:24 47.66050 11.39690 23837 ft 375 kts 349°
2026-05-06 10:24 47.68635 11.39304 23834 ft 375 kts 349°
2026-05-06 10:24 47.71225 11.38923 23833 ft 375 kts 349°
2026-05-06 10:24 47.73839 11.38545 23815 ft 376 kts 350°
2026-05-06 10:25 47.76428 11.38177 23792 ft 375 kts 350°
2026-05-06 10:25 47.79024 11.37813 23810 ft 374 kts 350°
2026-05-06 10:25 47.81596 11.37454 23818 ft 373 kts 350°
2026-05-06 10:25 47.84194 11.37094 23816 ft 374 kts 351°
2026-05-06 10:26 47.86762 11.36752 23808 ft 374 kts 351°
2026-05-06 10:26 47.89378 11.36511 23791 ft 376 kts 353°
2026-05-06 10:26 47.91981 11.36302 23785 ft 376 kts 353°
2026-05-06 10:26 47.94586 11.36091 23787 ft 376 kts 353°
2026-05-06 10:27 47.97198 11.35877 23790 ft 376 kts 353°
2026-05-06 10:27 47.99809 11.35661 23800 ft 376 kts 353°
2026-05-06 10:27 48.02417 11.35443 23795 ft 376 kts 353°
2026-05-06 10:27 48.05007 11.35225 23799 ft 376 kts 353°
2026-05-06 10:28 48.07632 11.34992 23795 ft 376 kts 352°
2026-05-06 10:28 48.10207 11.34552 23797 ft 374 kts 348°
2026-05-06 10:28 48.12788 11.34021 23794 ft 374 kts 347°
2026-05-06 10:28 48.15358 11.33495 23794 ft 374 kts 348°
2026-05-06 10:29 48.17963 11.32967 23786 ft 375 kts 348°
2026-05-06 10:29 48.20548 11.32449 23784 ft 375 kts 348°
2026-05-06 10:29 48.23112 11.31951 23780 ft 376 kts 349°
2026-05-06 10:29 48.24865 11.31929 23754 ft 382 kts
2026-05-06 10:30 48.28070 11.34040 23787 ft 381 kts 40°
2026-05-06 10:30 48.30025 11.36693 23769 ft 381 kts 45°
2026-05-06 10:30 48.31946 11.39441 23767 ft 382 kts 45°
2026-05-06 10:30 48.33855 11.42196 23776 ft 382 kts 46°
2026-05-06 10:31 48.35760 11.44953 23769 ft 382 kts 46°
2026-05-06 10:31 48.37657 11.47701 23773 ft 382 kts 45°
2026-05-06 10:31 48.39586 11.50502 23778 ft 381 kts 45°
2026-05-06 10:31 48.41464 11.53232 23778 ft 381 kts 45°
2026-05-06 10:32 48.43377 11.56015 23785 ft 380 kts 46°
2026-05-06 10:32 48.45270 11.58774 23787 ft 380 kts 45°
2026-05-06 10:32 48.47150 11.61518 23796 ft 379 kts 45°
2026-05-06 10:32 48.49060 11.64308 23796 ft 379 kts 45°
2026-05-06 10:33 48.50948 11.67068 23794 ft 379 kts 46°
2026-05-06 10:33 48.52846 11.69848 23786 ft 379 kts 46°
2026-05-06 10:33 48.54726 11.72602 23792 ft 379 kts 46°
2026-05-06 10:33 48.56607 11.75345 23794 ft 379 kts 46°
2026-05-06 10:34 48.58496 11.78095 23790 ft 379 kts 46°
2026-05-06 10:34 48.60404 11.80876 23784 ft 379 kts 46°
2026-05-06 10:34 48.62283 11.83619 23795 ft 380 kts 46°
2026-05-06 10:34 48.64187 11.86403 23788 ft 381 kts 46°
2026-05-06 10:35 48.66083 11.89177 23784 ft 381 kts 46°
2026-05-06 10:35 48.67981 11.91957 23783 ft 381 kts 46°
2026-05-06 10:35 48.69869 11.94726 23785 ft 381 kts 46°
2026-05-06 10:35 48.71768 11.97514 23786 ft 381 kts 46°
2026-05-06 10:36 48.73678 12.00321 23787 ft 381 kts 46°
2026-05-06 10:36 48.75571 12.03107 23783 ft 380 kts 46°
2026-05-06 10:36 48.77462 12.05893 23786 ft 380 kts 46°
2026-05-06 10:36 48.79357 12.08688 23779 ft 380 kts 46°
2026-05-06 10:37 48.81221 12.11441 23784 ft 379 kts 46°
2026-05-06 10:37 48.83105 12.14225 23779 ft 379 kts 46°
2026-05-06 10:37 48.85006 12.17038 23775 ft 379 kts 46°
2026-05-06 10:37 48.86891 12.19831 23772 ft 379 kts 46°
2026-05-06 10:38 48.88873 12.22421 23738 ft 380 kts 33°
2026-05-06 10:38 48.91217 12.24245 23785 ft 379 kts 24°
2026-05-06 10:38 48.92822 12.25367 23771 ft 379 kts 24°
2026-05-06 10:38 48.96007 12.27590 23768 ft 379 kts 24°
2026-05-06 10:39 48.98398 12.29261 23767 ft 379 kts 24°
2026-05-06 10:39 49.00782 12.30933 23765 ft 379 kts 24°
2026-05-06 10:39 49.03175 12.32616 23767 ft 379 kts 24°
2026-05-06 10:39 49.05566 12.34301 23774 ft 379 kts 24°
2026-05-06 10:40 49.07954 12.35987 23779 ft 379 kts 24°
2026-05-06 10:40 49.10326 12.37665 23778 ft 379 kts 24°
2026-05-06 10:40 49.12740 12.39375 23780 ft 378 kts 24°
2026-05-06 10:40 49.15119 12.41063 23786 ft 378 kts 24°
2026-05-06 10:41 49.17513 12.42764 23787 ft 378 kts 24°
2026-05-06 10:41 49.19871 12.44441 23788 ft 377 kts 24°
2026-05-06 10:41 49.21448 12.45565 23783 ft 378 kts 24°
2026-05-06 10:41 49.24618 12.47824 23791 ft 378 kts 23°
2026-05-06 10:42 49.27018 12.49538 23787 ft 378 kts 23°
2026-05-06 10:42 49.29384 12.51228 23793 ft 377 kts 23°
2026-05-06 10:42 49.31770 12.52934 23786 ft 378 kts 23°
2026-05-06 10:42 49.33353 12.54002 23782 ft 377 kts 19°
2026-05-06 10:43 49.36727 12.55299 23786 ft 374 kts
2026-05-06 10:43 49.39255 12.56076 23792 ft 374 kts
2026-05-06 10:43 49.41811 12.56863 23791 ft 374 kts
2026-05-06 10:44 49.46925 12.58449 23784 ft 374 kts
2026-05-06 10:44 49.49452 12.59239 23788 ft 374 kts
2026-05-06 10:44 49.52018 12.60043 23785 ft 374 kts
2026-05-06 10:44 49.54553 12.60841 23798 ft 374 kts
2026-05-06 10:45 49.57106 12.61643 23794 ft 374 kts
2026-05-06 10:45 49.59639 12.62326 23791 ft 373 kts
2026-05-06 10:45 49.62200 12.62930 23787 ft 373 kts
2026-05-06 10:45 49.64778 12.63538 23787 ft 374 kts
2026-05-06 10:46 49.67345 12.64150 23787 ft 374 kts
2026-05-06 10:46 49.69893 12.64760 23790 ft 374 kts
2026-05-06 10:46 49.72477 12.65383 23788 ft 375 kts
2026-05-06 10:46 49.75073 12.66013 23785 ft 374 kts
2026-05-06 10:47 49.77624 12.66634 23783 ft 374 kts
2026-05-06 10:47 49.79325 12.67048 23788 ft 374 kts
2026-05-06 10:47 49.82784 12.67894 23786 ft 374 kts
2026-05-06 10:47 49.85323 12.68516 23787 ft 374 kts
2026-05-06 10:48 49.87909 12.69151 23791 ft 374 kts
2026-05-06 10:48 49.90466 12.69779 23792 ft 375 kts
2026-05-06 10:48 49.93041 12.70414 23791 ft 375 kts
2026-05-06 10:48 49.95610 12.71047 23792 ft 375 kts
2026-05-06 10:49 49.98177 12.71681 23797 ft 375 kts
2026-05-06 10:49 50.00769 12.72321 23793 ft 375 kts
2026-05-06 10:49 50.03330 12.72956 23794 ft 375 kts
2026-05-06 10:49 50.05889 12.73591 23801 ft 375 kts
2026-05-06 10:50 50.08477 12.74233 23799 ft 374 kts
2026-05-06 10:50 50.11071 12.74877 23636 ft 379 kts
2026-05-06 10:50 50.13665 12.75520 23330 ft 382 kts
2026-05-06 10:50 50.16310 12.76176 22949 ft 384 kts
2026-05-06 10:51 50.18962 12.76835 22554 ft 381 kts
2026-05-06 10:51 50.21584 12.77488 22176 ft 378 kts
2026-05-06 10:51 50.24184 12.78136 21803 ft 375 kts
2026-05-06 10:51 50.26758 12.78778 21435 ft 372 kts
2026-05-06 10:52 50.29282 12.79409 21067 ft 369 kts
2026-05-06 10:52 50.31813 12.80043 20702 ft 367 kts
2026-05-06 10:52 50.34320 12.80670 20342 ft 365 kts
2026-05-06 10:52 50.36803 12.81380 19954 ft 365 kts 13°
2026-05-06 10:53 50.39100 12.83030 19639 ft 363 kts 30°
2026-05-06 10:53 50.41257 12.85064 19255 ft 362 kts 31°
2026-05-06 10:53 50.43399 12.87107 18892 ft 361 kts 31°
2026-05-06 10:53 50.45541 12.89153 18538 ft 360 kts 31°
2026-05-06 10:54 50.47657 12.91174 18182 ft 358 kts 31°
2026-05-06 10:54 50.49768 12.93188 17831 ft 357 kts 31°
2026-05-06 10:54 50.51891 12.95214 17472 ft 356 kts 31°
2026-05-06 10:54 50.53994 12.97220 17120 ft 354 kts 31°
2026-05-06 10:55 50.56080 12.99212 16774 ft 353 kts 31°
2026-05-06 10:55 50.58169 13.01206 16425 ft 351 kts 31°
2026-05-06 10:55 50.60250 13.03196 16072 ft 350 kts 31°
2026-05-06 10:55 50.62319 13.05184 15719 ft 348 kts 32°
2026-05-06 10:56 50.64243 13.07476 15384 ft 346 kts 41°
2026-05-06 10:56 50.66027 13.09961 15039 ft 345 kts 42°
2026-05-06 10:56 50.67801 13.12451 14692 ft 343 kts 41°
2026-05-06 10:56 50.69600 13.14978 14347 ft 342 kts 41°
2026-05-06 10:57 50.71362 13.17451 14017 ft 340 kts 41°
2026-05-06 10:57 50.73118 13.19913 13679 ft 339 kts 41°
2026-05-06 10:57 50.74875 13.22377 13334 ft 337 kts 41°
2026-05-06 10:57 50.76617 13.24820 13009 ft 336 kts 41°
2026-05-06 10:58 50.78348 13.27248 12677 ft 335 kts 41°
2026-05-06 10:58 50.80076 13.29674 12344 ft 333 kts 41°
2026-05-06 10:58 50.81817 13.32120 12011 ft 332 kts 41°
2026-05-06 10:58 50.83521 13.34517 11692 ft 328 kts 41°
2026-05-06 10:59 50.85222 13.36910 11368 ft 325 kts 40°
2026-05-06 10:59 50.86891 13.39260 11047 ft 322 kts 40°
2026-05-06 10:59 50.88554 13.41603 10730 ft 320 kts 40°
2026-05-06 10:59 50.90210 13.43940 10417 ft 317 kts 40°
2026-05-06 11:00 50.91847 13.46251 10104 ft 315 kts 40°
2026-05-06 11:00 50.93474 13.48550 9793 ft 313 kts 40°
2026-05-06 11:00 50.95108 13.50860 9471 ft 311 kts 40°
2026-05-06 11:00 50.96715 13.53132 9164 ft 309 kts 40°
2026-05-06 11:01 50.98313 13.55394 8863 ft 307 kts 40°
2026-05-06 11:01 50.99902 13.57645 8562 ft 305 kts 40°
2026-05-06 11:01 51.01458 13.59898 8249 ft 302 kts 43°
2026-05-06 11:01 51.02813 13.62358 7946 ft 295 kts 50°
2026-05-06 11:02 51.04084 13.64862 7662 ft 289 kts 50°
2026-05-06 11:02 51.05342 13.67342 7453 ft 280 kts 51°
2026-05-06 11:02 51.06546 13.69720 7257 ft 277 kts 51°
2026-05-06 11:02 51.07764 13.72123 7008 ft 277 kts 51°
2026-05-06 11:03 51.08976 13.74512 6740 ft 278 kts 51°
2026-05-06 11:03 51.10183 13.76892 6472 ft 278 kts 51°
2026-05-06 11:03 51.11401 13.79295 6197 ft 278 kts 50°
2026-05-06 11:03 51.12616 13.81689 5923 ft 278 kts 50°
2026-05-06 11:04 51.13825 13.84075 5650 ft 278 kts 50°
2026-05-06 11:04 51.15034 13.86461 5372 ft 278 kts 50°
2026-05-06 11:04 51.16239 13.88841 5098 ft 276 kts 50°
2026-05-06 11:04 51.17436 13.91206 4825 ft 274 kts 50°
2026-05-06 11:05 51.18619 13.93546 4554 ft 272 kts 50°
2026-05-06 11:05 51.19795 13.95871 4282 ft 267 kts 50°
2026-05-06 11:05 51.20955 13.98167 4020 ft 264 kts 50°
2026-05-06 11:05 51.22111 14.00404 3684 ft 265 kts 46°
2026-05-06 11:06 51.23591 14.01957 3540 ft 239 kts 14°
2026-05-06 11:06 51.25155 14.02191 3498 ft 222 kts 348°
2026-05-06 11:06 51.26514 14.01167 3268 ft 211 kts 318°
2026-05-06 11:06 51.27397 13.99319 3007 ft 205 kts 294°
2026-05-06 11:07 51.27674 13.97238 2963 ft 194 kts 264°
2026-05-06 11:07 51.27132 13.95247 2737 ft 197 kts 229°
2026-05-06 11:07 51.25966 13.94244 2736 ft 190 kts 203°
2026-05-06 11:07 51.24812 13.93377 2756 ft 179 kts 217°
2026-05-06 11:08 51.23856 13.92090 2470 ft 185 kts 231°
2026-05-06 11:08 51.22989 13.90648 2488 ft 173 kts 228°
2026-05-06 11:08 51.22147 13.89367 2503 ft 169 kts 222°
2026-05-06 11:08 51.21220 13.88046 2341 ft 181 kts 224°
2026-05-06 11:09 51.20271 13.86718 2373 ft 182 kts 225°
2026-05-06 11:09 51.19371 13.85199 2211 ft 200 kts 230°
2026-05-06 11:09 51.18333 13.83749 1910 ft 198 kts 223°
2026-05-06 11:09 51.17406 13.82324 1664 ft 174 kts 227°
2026-05-06 11:10 51.16570 13.81070 1377 ft 160 kts 218°
2026-05-06 11:10 51.15708 13.79946 1183 ft 157 kts 226°
2026-05-06 11:10 51.14893 13.78804 946 ft 154 kts 223°
2026-05-06 11:10 51.14124 13.77762 715 ft 135 kts 226°
2026-05-06 11:11 51.13521 13.76924 732 ft 95 kts 222°
2026-05-06 11:11 51.13119 13.76367 746 ft 59 kts 221°
2026-05-06 11:11 51.12863 13.76013 752 ft 39 kts 218°
2026-05-06 11:11 51.12712 13.75845 754 ft 17 kts 161°
2026-05-06 11:12 51.12620 13.75981 754 ft 18 kts 134°
2026-05-06 11:12 51.12579 13.76064 754 ft 1 kts 122°
2026-05-06 11:12 51.12592 13.76121 754 ft 11 kts 46°
2026-05-06 11:12 51.12636 13.76179 753 ft 3 kts 41°
2026-05-06 11:13 51.12685 13.76247 752 ft 15 kts 41°
2026-05-06 11:13 51.12777 13.76374 750 ft 13 kts 43°
2026-05-06 11:13 51.12802 13.76437 749 ft 6 kts 110°
2026-05-06 11:13 51.12750 13.76531 749 ft 14 kts 132°
2026-05-06 11:14 51.12735 13.76621 749 ft 9 kts 38°
2026-05-06 11:14 51.12785 13.76689 749 ft 4 kts 42°
2026-05-06 11:14 51.12787 13.76691 749 ft 0 kts 42°